Погода Рудня

Погода Рудня : погода сейчас, прогноз погоды и архив. Всё, что Вы хотите узнать о погоде Рудня!

Поиск расширенной информации на нашем сайте:

Другие новости

Новости СМИ2

Главная страница сайта

Новости сайта

02.10.2013

Напоминаем, что на нашем новом сайте вы можете получить высокодетализированные прогнозы погоды по пунктам России, СНГ и мира (включающие важные для авиации метеовеличины, такие как направление и скорость ветра, видимость, явления погоды, количество и форма облачности, нижняя и верхняя граница облачности), а также ознакомиться с разнообразными материалами по авиационной метеорологии и подборкой полезных ссылок на эту тему.

Сайт Метеоцентр.Азия посвящён разработке технологий оптимизации авиаметеорологического обслуживания, включая проектирование и перспективное создание нескольких автоматизированных авиаметеорологических систем:
- система выпуска высокодетальных прогностических карт явлений погоды для нижнего воздушного пространства по России и ближнему зарубежью;
- система верификации прогнозов TAF (выпускаемых синоптиками официальных АМСГ РФ и ближнего зарубежья) и AUTOTAF (выпускаемых сайтом Метеоцентр.Азия) - выявление ошибок, онлайн-сопоставление с фактической погодой METAR, автоматическое внесение коррективов в прогнозы при резком отклонении фактической погоды от прогноза, подсчёт оправдываемости прогнозов по элементам и в целом;
- система обработки, анализа и отображения авиаметеорологической информации для применения провайдерами метеорологической информации.

Рекомендуем: холодильная витрина

Погода Рудня - сегодня

Время (UTC), дата Ветер
(°,м/с) 
Видим.   Явления Облачность Т
(°С)
Тd
(°С)
f(%) Тe
(°С)
Pmin
(гПа)
dP
(гПа)
Po
(мм)
O2
(г/м3)
Тmin Tmax R s Состояние
почвы
00 21.01.17 280 (З) 10 км  {снег}  10/10 600 м 
[St]
-4.7 -6.1 90 -7  1016  751  308           
03 21.01.17 280 (З) 10 км    10/10 600 м 
[St]
-4.5 -6.1 89 -7  1014.8  -1.2  750  308  -7.5    0.2  20  равномерный
сухой снег
100% 
06 21.01.17 270 (З) 10 км    9/9 600 м 
[Sc]
-4.2 -6.2 86 -6  1014.5  -0.3  750  307           
09 21.01.17 270 (З) 10 км  слаб. снег  10/10 600 м 
[St]
-3.1 -5.4 84 -7  1012.7  -1.6  749  306           
12 21.01.17 270 (З) 10 км  слаб. снег  10/10 600 м 
[Frnb]
-3 -5 86 -6  1010.2  -2.5  747  305           
15 21.01.17 270 (З) 4000 м  слаб. снег  10/10 300 м 
[Frnb]
-3.4 -4.4 93 -6  1008.2  -1.9  745  305    -2.6     
18 21.01.17 300 (СЗ) 4000 м  слаб. снег  10/10 300 м 
[Frnb]
-2.5 -3.6 92 -5  1007  -1.1  744  303           
21 21.01.17 330 (СЗ) 4{13}  10 км  {снег}  ясно 
-6.7 -10.5 74 -10  1011.2  3.9  747  310           
00 22.01.17 310 (СЗ) 10 км  {снег}  ясно 
-11.1 -13.6 82 -13  1014.7  3.2  750  316           
03 22.01.17 280 (З) 10 км    ясно 
-11.4 -12.9 89 -15  1017  2.2  751  317  -11.4    23  неравномерный
сухой снег
100% 
06 22.01.17 290 (З) 10 км    ясно 
-10.8 -12.9 84 -14  1019.1  2.1  753  317  -12         
09 22.01.17 290 (З) 5-11{12}  10 км    ясно 
-7.6 -11.4 74 -12  1019.8  0.8  753  313           
12 22.01.17 270 (З) 5{12}  10 км    ясно 
-7.7 -11.8 72 -12  1019.5  -0.3  753  313           
15 22.01.17 280 (З) 4{10}  10 км    ясно 
-9.9 -12.5 81 -14  1019.5  0.1  753  316    -6.4       
18 22.01.17 280 (З) 4{10}  10 км    10/10 600 м 
[St]
-8.5 -10.8 83 -12  1017.9  -1.4  752  314           
21 22.01.17 280 (З) 3{13}  10 км  слаб. снег  10/10 600 м 
[St]
-6.4 -8.2 87 -9  1016.5  -1.3  751  311           
00 23.01.17 290 (З) 10 км  в посл. час снег  10/10 600 м 
[St]
-5 -6.3 91 -8  1016.3  -0.1  751  309           
03 23.01.17 300 (СЗ) 10 км    9/9 600 м 
[Sc]
-3.2 -4.8 89 -6  1017.6  1.4  752  307  -10.1    24  неравномерный
сухой снег
100% 
06 23.01.17 300 (СЗ) 10 км    8/8 600 м 
[Sc]
-2.9 -4.7 87 -4  1019.5  1.9  753  307           
09 23.01.17 270 (З) 10 км  слаб. снег  10/4 300 м средняя 
[Frnb|As trans]
-1 -4 80 -2  1020.2  0.7  754  305           
12 23.01.17 290 (З) 10 км  {снег}  10/10 600 м 
[St]
+0 -1.8 88 -1  1019.3  -0.8  753  304           
15 23.01.17 270 (З) 10 км    10/10 600 м 
[St]
-0.5 -2 90 -2  1019.3  0.1  753  304    +0.5  0.2     
18 23.01.17 260 (З) 10 км    10/10 600 м 
[St]
-1.4 -2.8 90 -4  1018.3  -1  753  305           
21 23.01.17 260 (З) 10 км    10/10 600 м 
[Sc]
-1.7 -3 91 -4  1017.3  -1.1  752  305           
00 24.01.17 270 (З) 5{10}  10 км    10/10 600 м 
[Sc]
-2.8 -4.1 91 -6  1015.7  -1.6  751  306           
Время (UTC), дата Ветер
(°,м/с) 
Видим.   Явления Облачность Т
(°С)
Тd
(°С)
f(%) Тe
(°С)
Pmin
(гПа)
dP
(гПа)
Po
(мм)
O2
(г/м3)
Тmin Tmax R s Состояние
почвы

Для получения пояснительной информации подведите курсор к названию столбца.

ПОГОДА Рудня - архив

Всё, что Вы хотите узнать о погоде Рудня - удобно и подробно!

Выберите нужную дату (начиная с 1 января 2015* года) и нажмите кнопку "Найти".
Будут отображены архивные сводки погоды по пункту Рудня, начиная с указанной даты.


Отображать данные в формате CSV (для использования в таблицах Excel)


Внимание! Наш архив погоды предназначен исключительно для личного некоммерческого использования в познавательных целях. Если Вам необходимы официальные справки о состоянии погоды (для производственных, юридических, коммерческих и т.п. целей), обращайтесь в органы Росгидромета.

*Примечание: данная дата относится к архиву по метеостанциям СССР (Россия, СНГ, Балтия).
Архив по метеостанциям Зарубежной Европы и Азии (кроме Китая) хранится 10 дней, по другим регионам земного шара (Китай, Африка, Америка, Австралия, Океания) - 1 день.

Рудня - район местоположения метеостанции


Название, широта, долгота, высота метеостанции:
Рудня 50.8°ш. 44.6°д. 114 м над ур. моря [Российская Федерация]

Дополнительная информация

В oтличие oт бoльшинства пoгoдных сайтoв мы публикуем пoдрoбную метеoинфoрмацию в детальнoм прoфессиoнальнoм фoрмате.

Характеристики температуры и влажнoсти вoздуха измеряются на высoте 2 м в тени вдали oт зданий и деревьев.
Скoрoсть ветра измеряется на высoте 10 м (на урoвне рoста челoвека скoрoсть ветра ниже в 1.5-2 раза). Если метеoстанция нахoдится в гoрoде или в лесу, тo скoрoсть ветра занижена на 2-4 м/с пo сравнению с oткрытым местoм. Скoрoсть ветра над акватoриями крупных рек и oзёр, а также на вершинах хoлмoв на 2-5 м/с выше, чем в oбычных услoвиях.
Атмoсфернoе давление в разных тoчках местнoсти мoжет значительнo oтличаться oт давления на метеoстанции, в зависимoсти oт услoвий рельефа (при пoдъёме на 10 м давление пoнижается примернo на 1 мм рт.ст.).